{"data":{"norad_id":57119,"intl_designator":"2023-090U","name":"STARLINK-6150","alt_names":[],"object_type":"PAYLOAD","status":"ACTIVE","operator":null,"country":"US","launch_date":"2023-06-23","launch_site_code":"AFETR","launch_vehicle":null,"mission":null,"orbit_class":"UNKNOWN","rcs_meters":null,"size_class":null,"mass_kg":null,"dimensions":null,"purposes":["comms"],"wikipedia_slug":null,"has_3d_model":false,"image_url":null,"decayed_at":null,"tle_current":{"epoch":"2026-09-20T16:43:08.863968Z","epoch_age_seconds":103968,"freshness":"FRESH","line1":"1 57119U 23090U   26263.69663037  .00000524  00000+0  28578-4 0  9990","line2":"2 57119  43.0014 260.4706 0000477 299.1575  60.9229 15.27568863180152","mean_motion":15.27568863,"eccentricity":4.77e-5,"inclination_deg":43.0014,"raan_deg":260.4706,"arg_perigee_deg":299.1575,"mean_anomaly_deg":60.9229,"bstar":2.8578e-5,"rev_number":18015,"period_min":94.267435981379,"perigee_km":482.75516425928,"apogee_km":483.40972459428,"semimajor_km":6861.2194444268,"source":"CELESTRAK","updated_at":"2026-09-21T09:00:33.561545Z"}}}